Weather History for Eureka, NV

Change the Weather History Date:

Saturday, December 8, 2012

  Actual Average Record
Temperature  
Mean Temperature 34 °F 26 °F  
Max Temperature 48 °F 40 °F 58 °F (1981)
Min Temperature 20 °F 13 °F -12 °F (2009)
Degree Days  
Heating Degree Days 31 39  
Month to date heating degree days 210 303  
Since 1 July heating degree days 1506 2062  
Cooling Degree Days 0 0  
Month to date cooling degree days 0 0  
Year to date cooling degree days 529 288  
Moisture  
Dew Point 15 °F    
Average Humidity 47    
Maximum Humidity 67    
Minimum Humidity 27    
Precipitation  
Precipitation 0.00 in 0.02 in 0.08 in (2003)
Month to date precipitation 0.14 0.14  
Year to date precipitation 6.06 8.53  
Sea Level Pressure  
Sea Level Pressure 30.00 in    
Wind  
Wind Speed 7 mph (WNW)    
Max Wind Speed 24 mph    
Max Gust Speed 29 mph    
T = Trace of Precipitation, MM = Missing Value Source: NWS Daily Summary

Daily Weather History Graph

Daily Weather History Graph

Search for Another Location

Airport:

Trip Planner

Search our weather history database for the weather conditions in past years. The results will help you decide how hot, cold, wet, or windy it might be!

Date:

Astronomy

Dec. 08, 2012 Rise Set
Actual Time 6:52 AM PST 4:19 PM PST
Civil Twilight 6:22 AM PST 4:49 PM PST
Nautical Twilight 5:48 AM PST 5:23 PM PST
Astronomical Twilight 5:16 AM PST 5:56 PM PST
Moon 1:23 AM PST (12/8) 12:51 PM PST (12/8)
Length of Visible Light 10h 27m
Length of Day
9h 27m
Waning Crescent, 27% of the Moon is Illuminated
Dec 8
Waning Crescent
Dec 13
New
Dec 19
First Quarter
Dec 28
Full
Jan 4
Last Quarter

Hourly Weather History & Observations

Time (PST) Temp. Windchill Dew Point Humidity Pressure Visibility Wind Dir Wind Speed Gust Speed Precip Events Conditions
12:53 AM 26.1 °F 17.6 °F 10.9 °F 53% 29.98 in - WSW 8.1 mph - N/A   Unknown
1:53 AM 37.0 °F 31.6 °F 6.1 °F 28% 29.94 in - West 6.9 mph - N/A   Unknown
2:53 AM 30.9 °F 22.2 °F 8.1 °F 38% 29.94 in - WSW 10.4 mph - N/A   Unknown
3:53 AM 34.0 °F 28.0 °F 8.1 °F 34% 29.94 in - WSW 6.9 mph - N/A   Unknown
4:53 AM 27.0 °F - 9.0 °F 47% 29.99 in - Calm Calm - N/A   Unknown
5:53 AM 25.0 °F - 10.9 °F 55% 30.01 in - Calm Calm - N/A   Unknown
6:53 AM 19.9 °F - 10.9 °F 68% 30.06 in - Calm Calm - N/A   Unknown
7:53 AM 28.9 °F - 15.1 °F 56% 30.01 in - Calm Calm - N/A   Unknown
8:53 AM 39.0 °F - 17.1 °F 41% 29.99 in - Calm Calm - N/A   Unknown
9:53 AM 42.1 °F 36.6 °F 15.1 °F 34% 30.01 in - SW 9.2 mph - N/A   Unknown
10:53 AM 46.0 °F 41.4 °F 15.1 °F 29% 30.01 in - West 9.2 mph 19.6 mph N/A   Unknown
11:53 AM 46.0 °F 40.6 °F 15.1 °F 29% 29.99 in - WNW 11.5 mph - N/A   Unknown
12:53 PM 46.0 °F 38.5 °F 16.0 °F 30% 29.96 in - WNW 19.6 mph 25.3 mph N/A   Unknown
1:53 PM 46.0 °F 39.0 °F 16.0 °F 30% 29.90 in - WNW 17.3 mph 23.0 mph N/A   Unknown
2:53 PM 44.1 °F 37.4 °F 17.1 °F 34% 29.94 in - NW 13.8 mph - N/A   Unknown
3:53 PM 39.9 °F 32.9 °F 18.0 °F 41% 29.94 in - NW 11.5 mph - N/A   Unknown
4:53 PM 37.9 °F 30.5 °F 18.0 °F 45% 29.99 in - NW 11.5 mph - N/A   Unknown
5:53 PM 37.0 °F 29.3 °F 18.0 °F 46% 30.03 in - NNW 11.5 mph - N/A   Unknown
6:53 PM 34.0 °F 26.6 °F 18.0 °F 52% 30.08 in - NNW 9.2 mph - N/A   Unknown
7:53 PM 30.0 °F 22.4 °F 18.0 °F 61% 30.07 in - North 8.1 mph - N/A   Unknown
8:53 PM 28.9 °F 23.9 °F 18.0 °F 64% 30.06 in - North 4.6 mph - N/A   Unknown
9:53 PM 30.0 °F - 19.0 °F 64% 30.06 in - Calm Calm - N/A   Unknown
10:53 PM 30.0 °F 22.4 °F 19.0 °F 64% 30.06 in - NNE 8.1 mph - N/A   Unknown
11:53 PM 27.0 °F - 18.0 °F 69% 30.08 in - Calm Calm - N/A   Unknown